Wetbulb
56.00 55.93 55.96 56.11 56.49 56.15 56.14 56.49 56.69 56.89 57.17 57.88 58.27 58.79 58.87 58.88 58.54 53.11 48.50 53.95 56.45 64.73 61.04 52.30 51.19 49.53 48.72 46.53 46.12 43.42 37.56 34.29 38.15 38.05 40.34 42.50 43.87 46.94 57.49 61.55 62.72 63.43 65.65 65.16 68.73
55.29 55.38 55.27 55.41 55.54 55.77 55.80 56.02 56.31 56.56 56.93 57.43 58.08 58.18 58.32 58.70 51.83 49.69 58.90 65.08 66.45 65.00 51.38 48.61 48.51 50.08 45.80 43.28 44.18 41.98 36.59 38.51 41.61 40.46 40.94 42.71 42.52 45.30 57.28 58.99 61.35 65.39 67.89 66.90 66.83
54.66 54.75 54.83 54.86 55.27 55.60 55.33 55.63 56.08 56.41 56.52 57.00 57.44 57.75 58.14 57.30 46.61 50.39 65.66 66.75 66.80 62.41 52.34 50.80 51.34 49.55 46.27 42.72 41.41 39.29 39.14 41.97 44.23 44.72 43.21 43.66 44.49 45.14 55.55 55.18 59.73 63.81 65.34 65.37 63.63
54.48 54.43 54.41 54.39 54.57 54.71 55.04 55.36 55.66 56.23 56.15 56.41 56.89 57.51 58.44 53.33 42.66 51.70 68.10 67.91 66.99 54.82 52.96 51.38 49.18 47.17 43.60 42.90 42.06 40.80 43.15 43.72 43.90 44.68 43.60 42.82 44.26 45.68 47.83 55.80 52.30 54.63 66.50 65.43 63.02
54.13 54.18 53.99 53.95 54.09 54.32 54.64 54.83 55.17 55.33 55.47 55.91 56.59 57.50 53.21 45.21 46.57 59.14 69.27 67.50 55.08 53.26 51.17 49.11 46.67 45.40 42.65 41.05 41.56 39.16 42.11 43.66 45.32 44.87 43.50 43.64 44.63 44.37 45.41 48.70 52.06 58.77 67.06 65.18 63.06
54.27 54.27 53.80 53.64 53.91 54.43 54.67 54.74 54.81 54.81 55.09 55.77 56.86 57.69 50.24 42.70 50.17 59.06 60.49 54.90 53.06 51.26 50.84 49.75 48.61 49.06 44.11 42.12 41.24 43.94 42.94 45.25 45.10 43.87 41.69 42.75 43.02 45.86 47.09 48.79 59.58 64.76 65.57 65.78 64.50
53.96 53.84 53.92 53.98 53.98 54.37 54.55 54.52 54.52 54.54 55.30 56.49 57.27 57.07 48.98 47.66 53.06 56.20 56.42 52.26 53.19 52.81 50.23 50.77 51.38 47.82 46.56 42.89 44.36 44.02 41.50 43.60 44.16 43.57 43.16 44.60 42.56 43.46 47.36 48.30 56.35 60.53 61.97 63.57 63.82
53.61 53.44 53.46 53.68 53.91 54.16 54.41 54.40 54.21 54.99 55.97 57.14 58.02 53.77 44.98 51.52 53.09 53.87 53.60 52.29 52.70 52.75 51.43 51.73 50.52 47.02 43.95 44.56 44.79 40.60 39.67 37.44 41.96 44.16 45.33 45.11 38.82 45.88 47.85 46.29 48.87 55.70 58.79 61.27 61.63
53.34 52.98 52.98 53.48 53.73 53.77 53.68 53.78 55.39 55.95 58.08 58.40 51.32 46.87 45.13 55.87 53.35 54.47 53.94 51.48 52.64 52.39 52.08 55.21 48.68 44.28 44.54 39.80 37.41 38.24 34.92 36.39 41.17 44.58 44.33 43.45 40.89 45.64 47.21 45.83 46.11 47.03 47.72 53.74 56.66
53.01 52.63 52.46 52.81 53.38 53.29 53.15 53.72 57.77 57.99 57.76 57.79 56.00 46.43 48.41 49.02 54.37 54.37 53.32 53.38 51.72 50.94 49.37 47.81 44.14 40.92 38.74 37.53 30.64 33.47 34.68 37.18 37.90 41.87 42.21 39.14 41.68 44.02 45.11 45.01 45.61 45.38 45.86 46.87 48.07
53.03 52.38 52.25 52.46 52.71 52.50 50.58 50.20 48.05 46.80 50.89 48.22 48.47 47.23 50.31 54.52 56.80 53.51 53.92 52.41 51.00 48.15 42.10 43.71 40.37 38.05 40.75 41.10 41.21 40.04 38.75 38.16 41.39 44.07 41.07 39.48 39.81 43.93 44.89 42.98 43.77 45.04 45.53 46.07 47.10
52.50 52.29 52.33 52.33 52.23 52.72 47.54 48.86 49.36 49.33 44.11 50.55 51.69 50.86 53.06 53.75 49.83 52.22 54.20 49.04 46.99 42.90 43.12 41.26 38.35 43.04 44.52 43.56 42.25 40.78 37.91 38.59 42.09 43.43 42.16 39.52 40.57 42.63 44.43 45.38 45.09 45.06 45.58 45.98 46.59
51.56 51.58 51.83 51.92 51.68 48.61 47.88 50.69 51.36 48.73 43.36 47.25 49.97 50.01 50.30 52.03 48.88 49.85 52.09 48.83 45.85 42.44 41.73 39.63 43.00 45.87 44.77 42.46 41.41 39.31 38.17 38.52 40.36 41.87 41.30 39.82 38.85 40.08 44.54 45.64 47.81 48.29 48.49 48.89 48.18
51.06 51.29 51.46 51.24 46.42 44.63 49.19 51.50 49.54 49.57 37.23 42.04 47.92 50.92 51.67 50.46 47.42 53.26 52.21 49.37 44.77 43.24 41.51 40.93 44.33 44.76 42.20 41.82 42.05 36.56 42.81 42.35 40.74 38.35 34.32 39.65 31.69 37.40 41.02 43.58 45.92 47.04 48.10 48.59 48.93
50.82 51.14 51.38 50.70 41.17 46.81 50.56 48.33 48.44 50.06 27.35 43.35 49.27 54.52 52.45 47.81 48.86 50.46 52.09 48.67 44.61 44.02 43.22 42.08 42.62 41.09 40.54 42.85 43.63 41.63 44.36 41.58 41.00 37.08 34.82 35.36 33.03 36.68 39.43 41.34 43.42 45.58 48.03 48.97 49.54
50.46 51.06 50.84 46.48 43.15 46.88 47.65 47.03 50.03 38.22 29.09 44.30 48.73 48.14 47.31 48.58 49.14 48.86 49.80 49.96 48.50 44.27 43.06 43.54 45.07 44.64 43.92 45.24 44.77 45.44 41.28 39.31 35.93 34.07 29.86 34.17 34.07 32.75 37.78 40.72 43.06 45.46 47.48 49.17 49.25
50.33 50.55 47.54 47.90 44.23 46.08 47.07 48.03 36.05 30.79 43.31 43.00 44.54 47.44 45.69 44.70 46.18 47.36 45.09 42.58 40.55 36.86 37.14 40.76 41.29 44.10 46.23 41.93 43.20 41.24 36.43 30.54 29.67 29.29 29.44 36.01 34.76 33.55 42.59 44.93 45.33 44.36 45.31 47.42 48.20
49.09 48.35 45.65 48.91 47.25 47.02 48.63 41.87 29.81 37.89 41.83 46.27 46.30 46.22 42.73 44.72 44.96 45.17 42.87 39.33 43.15 40.80 35.98 35.52 34.81 42.80 46.15 42.24 40.19 37.84 37.31 31.30 26.64 27.28 30.59 36.25 31.90 36.54 44.44 43.81 44.69 45.63 44.75 46.16 47.23
47.50 41.11 45.24 48.23 46.89 47.67 44.42 34.18 32.62 40.38 44.52 43.13 44.02 40.61 41.16 44.29 43.89 43.99 40.00 39.41 41.59 41.50 35.56 35.14 36.34 44.91 45.27 44.12 42.70 38.68 34.67 37.56 31.41 30.48 28.35 31.72 36.22 41.07 41.40 42.03 42.82 43.21 44.88 45.37 46.64
38.72 38.64 44.21 48.98 45.41 46.36 38.81 35.25 39.80 44.14 44.42 44.48 38.01 40.34 35.97 39.27 40.87 41.28 37.60 40.56 40.81 43.15 42.87 39.39 35.35 42.99 45.35 45.23 43.78 39.96 41.17 33.31 30.58 26.72 25.10 29.52 31.75 32.92 36.48 38.40 40.26 40.69 42.58 44.72 46.33
36.85 38.23 46.20 47.21 46.47 40.31 31.79 35.48 41.53 43.70 44.88 41.59 38.29 37.27 36.81 35.43 37.36 39.17 38.95 41.27 41.43 42.54 42.03 38.17 37.83 38.23 42.12 37.11 35.86 36.43 33.45 32.89 31.98 29.87 26.61 25.19 29.06 37.03 37.56 38.98 38.90 40.02 42.37 43.96 44.96
34.81 35.82 44.58 44.68 37.69 33.33 32.48 37.13 42.28 41.55 42.88 41.94 40.17 38.56 36.70 37.07 36.27 36.36 34.56 37.71 41.98 42.77 36.88 38.71 37.11 33.41 36.69 39.27 39.68 37.64 31.64 30.36 27.71 26.91 27.39 28.04 27.26 40.86 39.71 39.63 40.61 40.56 42.38 44.36 45.81
33.95 34.13 43.72 42.57 31.35 31.04 35.47 39.02 41.08 40.34 39.40 39.96 39.75 41.46 40.21 36.95 33.69 39.36 38.28 41.67 41.92 39.89 35.31 35.22 28.78 24.43 28.62 31.53 34.90 32.82 33.72 31.67 28.87 27.07 24.81 23.52 25.66 39.98 40.40 40.03 40.59 40.08 42.05 43.10 45.59
34.77 31.75 35.77 36.04 34.47 32.48 32.63 35.18 37.03 42.80 40.97 41.03 39.63 40.56 37.95 36.60 37.05 35.78 37.49 41.37 41.92 43.27 44.68 39.46 29.16 28.26 24.80 28.65 31.39 29.56 32.70 32.52 29.17 21.78 24.86 25.41 28.30 32.78 34.13 37.89 39.63 39.71 41.59 42.38 43.65
34.91 30.96 33.01 28.23 31.08 32.01 32.65 35.29 35.54 36.49 40.17 39.31 36.96 39.28 37.25 32.54 33.50 33.65 36.68 37.26 39.43 41.48 36.80 33.29 27.16 30.45 31.81 32.71 33.00 32.33 32.67 33.16 29.31 29.36 25.63 27.37 28.43 31.50 34.71 37.57 39.17 40.73 41.67 42.54 43.23
33.43 32.59 34.48 32.41 32.95 32.53 33.64 32.47 35.37 36.56 36.68 35.50 34.38 38.17 36.55 32.88 34.40 32.44 35.15 34.02 34.21 36.43 32.12 31.10 26.09 29.07 28.15 32.93 33.10 30.55 32.59 32.73 31.66 30.44 29.17 29.66 28.90 36.89 39.44 38.90 39.34 39.19 39.85 40.66 42.26
35.49 35.67 34.42 32.19 31.49 30.36 31.31 33.79 35.67 36.43 37.78 38.36 36.08 33.71 33.47 36.01 38.39 38.38 38.25 37.16 36.52 34.13 31.56 29.43 26.52 24.43 22.28 31.06 31.23 25.75 30.70 31.62 31.77 32.68 32.21 29.36 32.41 36.43 36.67 37.74 38.10 38.87 39.57 40.06 42.39
MSLP
1017.12 1016.68 1016.22 1015.73 1015.31 1014.95 1014.59 1014.22 1013.91 1013.69 1013.46 1013.21 1013.01 1012.81 1012.60 1012.44 1012.08 1012.09 1010.99 1009.20 1009.27 1009.42 1009.70 1010.28 1010.44 1010.66 1010.90 1011.29 1011.59 1012.33 1013.78 1014.40 1013.08 1012.20 1010.93 1010.12 1009.65 1008.75 1008.47 1008.61 1008.72 1008.64 1008.63 1008.84 1009.27
1017.25 1016.70 1016.19 1015.75 1015.33 1014.91 1014.48 1014.05 1013.74 1013.51 1013.27 1012.99 1012.74 1012.64 1012.52 1012.39 1012.09 1010.98 1008.49 1008.56 1008.93 1009.21 1009.74 1010.22 1010.55 1010.71 1011.22 1011.45 1011.83 1012.40 1013.56 1013.37 1012.02 1011.33 1010.80 1010.15 1009.47 1009.05 1008.70 1008.70 1008.73 1008.49 1008.78 1009.28 1009.57
1017.35 1016.70 1016.14 1015.68 1015.27 1014.83 1014.36 1013.90 1013.54 1013.27 1013.03 1012.77 1012.52 1012.38 1012.29 1012.25 1011.55 1008.96 1007.83 1008.31 1008.80 1009.14 1009.54 1009.96 1010.28 1010.58 1011.16 1011.40 1011.70 1012.15 1012.56 1012.16 1011.15 1010.76 1010.54 1010.00 1009.46 1008.55 1008.41 1008.81 1008.63 1008.28 1008.71 1009.62 1009.90
1017.39 1016.76 1016.15 1015.59 1015.11 1014.66 1014.23 1013.73 1013.30 1013.01 1012.81 1012.62 1012.39 1012.20 1012.02 1011.97 1010.63 1008.28 1007.90 1008.30 1008.87 1009.15 1009.56 1010.01 1010.34 1010.80 1011.23 1011.38 1011.39 1011.62 1011.38 1011.25 1010.64 1010.06 1010.08 1009.65 1009.13 1008.59 1008.28 1007.91 1007.65 1007.72 1008.61 1009.15 1009.80
1017.40 1016.71 1016.08 1015.46 1014.89 1014.37 1013.92 1013.47 1013.08 1012.76 1012.51 1012.36 1012.22 1012.02 1011.84 1011.37 1009.68 1008.33 1008.13 1008.59 1009.08 1009.41 1009.77 1010.06 1010.29 1010.70 1011.04 1011.10 1011.14 1011.26 1010.87 1010.67 1010.07 1009.86 1009.53 1009.21 1008.81 1008.94 1008.27 1007.57 1007.66 1007.76 1008.60 1009.26 1009.67
1017.29 1016.66 1015.99 1015.29 1014.62 1014.02 1013.54 1013.08 1012.73 1012.43 1012.20 1012.09 1012.01 1011.86 1011.69 1010.71 1008.27 1008.24 1008.59 1008.92 1009.16 1009.49 1009.78 1009.90 1010.02 1010.20 1010.62 1010.83 1010.89 1010.72 1010.59 1010.19 1009.75 1009.43 1009.21 1008.96 1008.74 1008.64 1008.33 1007.83 1008.16 1008.36 1008.53 1009.35 1009.56
1017.12 1016.45 1015.80 1015.12 1014.38 1013.69 1013.11 1012.62 1012.26 1012.01 1011.84 1011.82 1011.83 1011.73 1011.23 1009.20 1008.12 1008.31 1008.63 1008.87 1008.98 1009.20 1009.56 1009.62 1009.70 1010.11 1010.29 1010.57 1010.59 1010.56 1010.64 1010.19 1009.57 1009.15 1008.93 1008.81 1009.00 1008.80 1008.13 1008.25 1008.40 1008.82 1009.27 1009.28 1009.45
1017.03 1016.25 1015.56 1014.86 1014.12 1013.38 1012.66 1012.12 1011.80 1011.53 1011.45 1011.51 1011.64 1011.54 1010.37 1008.19 1008.10 1008.31 1008.52 1008.69 1008.85 1009.03 1009.21 1009.35 1009.55 1009.97 1010.34 1010.55 1010.85 1011.01 1010.96 1010.59 1009.66 1009.21 1008.65 1008.94 1009.40 1008.77 1008.10 1008.62 1008.65 1008.81 1009.19 1009.51 1009.47
1016.90 1016.09 1015.27 1014.48 1013.75 1013.06 1012.32 1011.72 1011.26 1011.37 1011.38 1011.57 1011.72 1011.22 1009.51 1007.93 1007.91 1007.45 1007.89 1008.15 1008.46 1008.82 1009.02 1009.18 1009.42 1010.42 1010.74 1011.41 1011.87 1012.02 1011.54 1010.93 1010.05 1009.17 1009.08 1009.09 1009.16 1008.37 1008.24 1008.40 1008.91 1008.87 1009.07 1009.43 1009.48
1016.72 1015.80 1014.94 1014.14 1013.38 1012.78 1011.99 1011.69 1011.44 1011.41 1011.63 1011.62 1011.33 1011.21 1008.90 1007.68 1007.17 1007.21 1007.63 1007.99 1008.41 1008.62 1008.97 1009.41 1010.30 1011.17 1012.01 1012.27 1012.79 1012.57 1011.99 1011.29 1010.57 1009.73 1009.39 1009.48 1009.06 1008.63 1008.55 1008.50 1008.65 1009.43 1009.53 1009.56 1009.59
1016.75 1015.71 1014.76 1013.92 1013.08 1012.59 1011.96 1011.79 1012.10 1011.73 1011.39 1010.41 1009.87 1009.10 1007.90 1007.02 1006.61 1006.94 1007.40 1008.17 1008.65 1009.12 1009.75 1010.24 1011.15 1011.41 1011.74 1011.93 1011.85 1011.99 1011.97 1011.66 1010.45 1009.64 1009.72 1009.54 1009.49 1008.92 1008.81 1008.81 1009.40 1009.46 1009.62 1009.98 1009.96
1016.75 1015.69 1014.42 1013.60 1012.77 1012.29 1012.29 1012.06 1012.18 1012.09 1010.96 1009.19 1008.11 1007.88 1007.32 1006.98 1007.03 1006.95 1007.14 1008.15 1008.76 1009.48 1010.06 1010.82 1010.90 1010.72 1011.04 1011.30 1011.58 1011.75 1011.68 1011.17 1010.45 1009.56 1009.97 1009.86 1009.93 1009.51 1009.39 1010.19 1010.85 1010.60 1010.70 1010.68 1010.26
1016.67 1015.66 1014.40 1013.33 1012.50 1012.10 1012.26 1011.73 1011.54 1011.57 1011.38 1008.13 1007.44 1006.97 1006.60 1007.01 1007.06 1006.47 1007.06 1007.51 1008.47 1009.55 1009.99 1010.55 1010.03 1009.91 1010.39 1010.63 1010.95 1010.95 1011.17 1010.77 1010.66 1010.29 1010.32 1010.49 1010.79 1010.55 1010.48 1010.96 1011.36 1011.66 1011.99 1011.75 1011.43
1016.41 1015.36 1014.61 1013.16 1012.61 1012.87 1011.98 1011.21 1011.10 1011.10 1011.02 1008.55 1006.88 1005.99 1006.26 1006.41 1006.57 1005.91 1006.22 1007.06 1008.20 1008.73 1009.90 1010.21 1009.46 1009.53 1009.73 1009.99 1010.11 1010.27 1009.99 1010.29 1010.60 1011.08 1011.55 1011.26 1012.06 1011.71 1011.86 1012.40 1012.62 1012.79 1012.70 1012.62 1012.39
1015.98 1015.09 1014.39 1013.74 1013.85 1012.74 1011.68 1010.99 1010.68 1010.92 1010.84 1007.79 1006.32 1005.35 1005.93 1006.31 1005.68 1005.62 1005.69 1006.40 1007.39 1008.34 1009.41 1009.30 1008.92 1008.97 1009.07 1009.12 1009.32 1009.41 1009.38 1010.16 1010.59 1011.56 1012.14 1012.44 1013.00 1012.49 1012.77 1013.59 1013.91 1013.87 1013.69 1013.25 1012.76
1015.77 1014.85 1014.23 1013.95 1014.03 1012.30 1011.73 1011.35 1010.88 1011.57 1010.33 1007.99 1006.91 1006.61 1006.94 1006.51 1006.20 1005.91 1006.17 1006.39 1006.99 1008.24 1008.78 1008.73 1008.43 1008.32 1008.20 1008.35 1008.74 1008.95 1009.75 1010.96 1011.94 1012.68 1013.32 1012.96 1013.41 1014.03 1014.24 1014.45 1014.61 1014.59 1014.43 1014.15 1013.46
1015.35 1014.55 1013.95 1013.98 1013.40 1012.26 1011.77 1011.78 1012.46 1011.76 1009.99 1009.47 1008.58 1008.01 1007.85 1007.76 1007.37 1007.25 1007.22 1007.80 1008.48 1009.16 1009.24 1009.09 1008.67 1008.27 1008.01 1008.52 1008.98 1009.59 1010.95 1012.39 1013.38 1013.96 1013.92 1013.48 1013.95 1014.38 1014.71 1014.83 1014.95 1015.14 1014.97 1014.49 1013.87
1015.23 1014.40 1013.91 1013.22 1012.76 1012.55 1012.19 1012.65 1013.07 1011.94 1011.10 1010.27 1009.79 1009.28 1009.21 1009.19 1008.82 1008.79 1008.80 1009.71 1009.84 1010.06 1010.41 1010.02 1009.58 1008.97 1008.60 1008.70 1009.17 1010.10 1011.23 1012.93 1014.00 1014.91 1014.67 1014.16 1014.37 1014.50 1014.85 1015.27 1015.51 1015.52 1015.46 1015.09 1014.39
1015.32 1014.49 1014.02 1013.00 1012.43 1012.49 1013.16 1013.90 1013.16 1012.54 1011.80 1011.26 1010.64 1010.45 1010.57 1010.42 1010.38 1010.20 1011.14 1011.75 1011.77 1011.50 1011.45 1011.18 1010.48 1009.83 1009.36 1009.46 1009.81 1010.79 1011.85 1012.57 1014.17 1015.59 1015.81 1015.05 1015.25 1015.49 1015.65 1015.97 1016.16 1016.13 1015.85 1015.55 1015.16
1017.26 1016.27 1014.41 1012.89 1012.50 1012.74 1013.90 1014.20 1013.45 1012.52 1012.08 1011.66 1011.72 1011.86 1011.98 1011.81 1011.53 1011.72 1012.70 1013.15 1012.89 1012.70 1012.03 1012.26 1011.77 1011.11 1010.57 1010.40 1010.64 1010.98 1012.22 1013.64 1015.01 1016.32 1016.72 1016.07 1015.77 1015.69 1016.29 1016.37 1016.53 1016.54 1016.56 1016.31 1015.74
1017.69 1016.56 1014.03 1013.04 1012.75 1014.09 1015.18 1014.81 1013.60 1012.49 1012.27 1012.32 1012.35 1012.57 1012.90 1013.11 1012.86 1012.92 1013.55 1013.64 1013.46 1013.46 1013.37 1013.36 1013.27 1012.80 1012.34 1012.91 1013.09 1013.01 1013.58 1014.77 1015.76 1016.65 1017.10 1017.33 1016.60 1016.31 1016.65 1016.93 1017.18 1017.10 1016.95 1016.59 1016.24
1019.38 1017.81 1014.52 1013.36 1014.63 1016.23 1016.34 1015.59 1014.22 1013.08 1012.64 1012.60 1012.84 1013.04 1013.47 1013.65 1013.92 1014.08 1014.59 1014.57 1014.28 1014.12 1014.34 1014.68 1015.32 1014.79 1014.44 1014.43 1014.33 1013.94 1015.39 1016.17 1017.30 1018.25 1018.34 1018.06 1017.13 1016.78 1016.93 1017.04 1017.18 1017.19 1017.07 1016.62 1016.20
1021.11 1019.34 1015.40 1014.78 1017.03 1017.87 1017.01 1015.91 1014.82 1013.78 1013.19 1013.01 1013.21 1013.29 1013.64 1014.22 1014.62 1014.68 1014.90 1015.08 1014.86 1014.97 1015.36 1015.53 1016.12 1016.19 1015.58 1015.50 1015.08 1015.58 1016.33 1016.86 1017.84 1018.71 1018.90 1018.91 1017.68 1017.19 1017.19 1017.32 1017.27 1017.12 1016.72 1016.22 1015.78
1021.67 1020.85 1018.81 1018.36 1019.25 1019.11 1018.61 1017.26 1015.88 1014.43 1013.88 1013.61 1013.84 1013.94 1014.02 1014.76 1014.94 1015.21 1015.34 1015.45 1015.46 1015.47 1015.74 1015.97 1016.89 1016.91 1016.65 1016.19 1016.32 1016.52 1016.77 1017.35 1018.18 1019.34 1018.87 1018.28 1017.74 1017.56 1017.20 1017.03 1016.90 1016.86 1016.67 1016.38 1016.17
1022.74 1022.98 1022.63 1021.38 1020.59 1020.24 1019.57 1018.42 1017.21 1015.99 1014.89 1014.56 1014.70 1014.63 1014.83 1015.20 1015.31 1015.54 1015.84 1016.07 1016.14 1016.34 1016.61 1017.23 1017.97 1017.89 1017.33 1017.00 1017.02 1016.86 1016.86 1017.39 1018.12 1018.34 1018.74 1017.99 1017.70 1017.32 1017.12 1017.14 1017.16 1017.11 1016.98 1016.71 1016.22
1023.94 1024.10 1023.36 1022.46 1021.62 1020.85 1019.99 1019.16 1018.25 1017.46 1016.69 1015.66 1015.53 1015.47 1015.27 1015.68 1015.73 1015.86 1016.05 1016.45 1016.59 1017.16 1017.66 1018.35 1018.72 1018.84 1018.49 1017.75 1017.56 1017.39 1017.05 1017.14 1017.50 1017.70 1017.78 1017.85 1017.72 1017.25 1017.20 1017.28 1017.46 1017.51 1017.41 1017.07 1016.45
1024.55 1024.52 1024.25 1023.15 1022.30 1021.59 1020.72 1020.01 1019.10 1018.64 1017.38 1016.69 1016.45 1016.21 1016.14 1015.94 1015.70 1015.78 1016.03 1016.28 1016.56 1017.34 1018.26 1019.01 1019.57 1020.27 1019.82 1019.00 1018.45 1017.93 1016.69 1016.59 1016.82 1016.91 1017.13 1017.59 1017.42 1017.58 1017.70 1017.78 1017.70 1017.63 1017.21 1016.83 1016.43
Wind_Speed
21 20 19 18 17 16 15 13 12 11 10 10 10 10 10 10 11 2 5 9 4 8 5 5 3 3 3 2 2 4 6 1 4 5 4 5 9 4 1 5 3 6 1 1 15
21 21 20 19 18 17 16 15 13 12 11 11 10 10 9 8 2 6 9 8 8 11 4 4 3 4 3 2 2 6 5 10 5 3 2 4 3 4 3 2 3 5 6 9 12
22 22 21 20 19 17 17 15 14 12 11 11 10 10 9 5 3 6 2 10 11 8 5 4 3 2 3 0 3 3 6 6 5 7 4 4 6 2 6 2 7 8 7 8 11
23 23 22 21 20 19 17 16 15 13 11 10 10 9 9 1 1 1 3 12 11 7 5 5 3 3 3 2 2 1 5 5 5 4 3 4 3 6 3 7 5 7 0 7 8
23 23 23 23 21 20 18 17 15 13 11 9 7 7 3 4 8 4 10 13 7 5 5 3 3 4 2 3 3 3 3 4 7 8 8 1 8 5 6 6 3 4 8 7 6
22 22 23 23 22 20 18 16 14 12 11 8 5 4 1 3 3 5 9 7 5 5 5 5 5 5 3 3 3 5 3 6 5 4 4 5 0 7 7 5 3 5 11 7 8
24 23 23 23 22 21 19 16 12 11 8 6 4 2 3 14 2 2 8 5 7 5 4 3 4 4 6 2 2 1 4 6 4 1 3 5 4 4 4 4 5 7 6 5 8
25 25 24 23 23 22 21 17 14 9 5 4 4 1 8 3 2 4 5 4 4 4 1 2 1 2 1 1 6 2 4 2 4 0 2 6 6 10 8 6 9 9 7 7 8
26 26 26 25 24 23 20 18 6 2 3 6 2 2 10 6 3 4 6 5 6 4 4 2 2 3 5 4 6 7 3 3 6 5 1 4 6 4 5 7 10 9 9 9 8
28 28 27 27 26 22 20 4 5 6 3 2 2 2 5 3 3 4 4 4 5 2 4 4 5 3 4 5 3 2 2 3 4 0 2 1 7 6 6 6 7 6 6 7 8
28 29 28 27 26 22 8 1 5 4 0 7 6 5 2 4 3 3 6 7 3 5 1 3 3 7 8 7 6 2 3 4 6 5 1 4 4 9 7 2 2 5 5 7 9
29 29 30 28 25 18 1 6 5 5 11 13 19 10 8 1 2 4 7 7 6 7 3 4 7 7 4 4 5 5 3 8 8 4 6 2 4 4 4 7 7 9 11 11 11
28 28 29 28 27 3 2 4 2 3 2 10 5 5 5 11 9 8 10 6 5 6 8 8 9 8 6 3 3 4 5 5 8 4 2 1 6 6 4 11 11 10 6 8 10
30 29 27 30 3 3 1 6 5 5 5 9 4 5 3 6 5 7 9 8 3 12 8 6 3 8 4 5 6 4 8 5 3 4 4 2 4 5 4 9 10 9 10 9 9
33 30 25 10 3 1 4 8 6 5 6 5 2 2 3 4 2 5 4 4 10 8 8 10 7 4 3 8 6 9 4 4 3 5 4 1 6 7 2 7 7 9 10 11 11
34 31 22 2 1 6 8 9 4 8 7 7 5 7 3 3 6 3 3 4 3 5 1 7 2 7 9 3 4 1 3 7 5 4 2 5 7 4 2 1 3 6 8 10 11
37 31 8 1 4 8 7 4 6 4 6 7 5 6 2 6 6 7 3 5 3 4 5 3 3 3 3 3 3 5 6 3 4 2 6 4 3 4 3 2 3 5 8 9 8
38 21 3 3 6 6 4 7 3 2 3 3 5 8 5 9 5 9 4 4 7 5 3 6 6 4 3 2 8 3 7 7 6 4 4 2 5 6 5 6 4 4 5 8 13
26 5 3 4 6 1 7 4 5 2 3 5 6 5 4 5 5 6 6 8 6 7 2 2 3 4 5 3 2 4 2 4 7 3 3 3 3 1 3 2 4 6 9 11 12
5 5 4 12 5 5 6 4 3 2 4 2 2 3 4 6 3 5 9 5 8 8 2 3 1 2 4 3 4 3 5 3 3 5 5 4 3 5 3 6 7 9 8 8 9
4 5 4 13 3 7 3 5 4 1 0 3 1 2 2 3 2 2 6 3 5 6 7 2 4 3 2 6 3 6 4 6 4 4 6 3 5 5 5 2 3 6 7 7 7
4 4 5 7 6 2 1 5 5 3 3 3 4 3 2 3 5 4 3 3 7 1 3 1 3 2 1 4 4 4 2 3 5 2 1 2 6 5 5 2 3 5 5 6 6
3 4 6 4 4 4 7 5 3 5 2 1 2 2 3 2 1 3 3 2 7 4 2 3 1 2 8 5 2 6 1 4 5 3 5 5 5 5 3 1 2 4 7 7 8
3 5 6 6 1 3 5 5 7 9 3 2 2 2 5 2 3 3 2 0 5 2 9 4 2 6 7 5 2 3 4 3 5 4 3 6 4 5 5 4 5 7 7 8 7
4 1 1 5 3 2 1 3 5 5 5 5 3 1 1 3 0 2 2 2 2 4 4 4 3 3 4 5 3 4 6 4 7 5 6 4 7 6 5 3 4 5 8 10 12
3 4 5 3 4 4 3 1 4 6 4 4 2 1 1 3 4 5 3 3 4 0 2 2 3 1 4 7 5 6 9 8 7 4 6 6 8 2 3 3 4 7 7 9 10
2 2 3 3 4 2 1 3 3 4 4 5 4 2 3 5 5 5 5 4 3 6 6 5 6 3 4 3 3 6 9 8 4 4 5 5 6 2 2 3 4 7 8 10 8
Wind_Direction
360 357 355 352 348 345 342 339 336 330 318 310 308 309 314 320 313 220 238 207 176 137 124 119 94 107 61 68 85 124 65 174 243 173 265 338 6 351 6 117 240 205 264 149 136
357 354 352 350 346 341 339 336 334 329 319 309 306 308 314 324 266 237 248 165 130 144 93 135 137 126 61 90 29 91 114 212 217 214 306 307 307 318 166 131 290 302 85 114 128
354 351 350 347 343 339 336 332 330 326 320 311 307 310 312 319 319 248 218 167 154 151 110 144 116 99 83 36 179 158 172 210 256 223 212 265 315 230 131 264 232 224 155 153 140
349 347 346 343 340 337 332 328 327 324 317 308 305 311 313 203 137 14 269 145 142 135 106 115 77 80 96 175 182 169 224 193 273 242 192 206 205 300 227 213 214 245 311 156 160
344 344 343 340 337 334 328 325 323 317 309 299 298 313 306 14 254 15 102 121 117 109 140 141 111 122 143 212 141 181 269 188 253 281 248 237 231 204 257 248 300 216 126 192 174
343 340 340 337 333 330 325 321 317 311 303 291 282 286 83 297 227 130 122 128 133 122 166 161 182 198 149 198 154 203 255 281 284 274 256 181 223 139 231 232 175 201 183 196 210
342 340 338 334 331 328 324 321 313 304 291 277 266 267 121 236 109 61 151 166 164 161 158 214 162 154 147 304 197 268 318 334 246 201 260 160 3 220 228 196 194 211 273 221 220
341 340 337 334 330 328 325 320 308 285 253 212 203 190 246 255 313 140 159 164 176 215 192 258 162 194 319 108 20 23 45 49 279 229 222 111 256 261 254 179 213 225 222 217 240
341 338 336 334 333 331 326 322 312 174 155 150 131 136 268 317 272 206 158 163 159 178 210 241 118 84 29 67 11 3 225 231 314 192 301 170 242 242 286 229 205 222 227 212 226
340 339 336 335 333 334 327 306 92 116 96 207 299 22 285 258 212 186 144 86 76 24 34 90 57 78 42 75 234 276 21 335 270 275 21 194 268 294 301 231 264 187 262 263 246
340 337 335 334 332 334 338 55 13 358 121 212 199 237 276 247 143 215 129 94 70 54 166 24 89 219 220 199 189 227 230 236 254 232 292 268 271 299 325 101 283 300 289 251 258
338 337 333 334 330 328 277 87 98 238 301 227 247 250 224 61 321 226 121 141 135 194 127 21 246 219 180 174 203 203 256 270 283 279 160 245 270 293 31 56 29 25 12 0 354
337 336 332 333 323 356 354 90 336 149 248 294 218 223 207 165 220 238 153 141 167 155 184 171 220 132 179 218 234 236 185 238 213 7 87 137 341 340 46 51 37 34 11 4 358
335 334 336 330 13 324 291 305 313 182 36 281 275 275 117 134 246 181 182 147 182 199 150 205 226 227 184 239 159 271 196 220 196 101 224 62 251 296 78 40 31 8 11 1 349
334 336 337 341 286 58 285 323 306 59 347 292 334 98 122 196 195 216 168 91 187 174 128 232 179 171 155 219 157 230 151 195 186 155 116 337 96 268 65 43 3 352 357 355 347
334 334 336 73 345 264 323 313 43 53 255 320 354 357 343 275 346 31 159 78 152 130 34 226 239 156 208 216 196 287 99 45 53 94 110 222 142 303 42 43 344 354 353 349 347
333 333 337 346 313 320 313 40 50 145 335 335 342 346 2 335 359 21 143 42 186 139 221 331 256 272 167 148 15 86 66 327 341 1 215 171 99 176 143 22 22 350 337 337 340
330 328 278 216 280 324 35 51 159 294 331 345 342 327 52 10 18 349 45 36 19 26 100 170 288 350 349 173 178 160 147 161 212 201 244 339 208 198 130 30 24 358 328 350 356
327 336 356 289 318 48 65 67 213 258 296 339 334 33 1 3 26 30 56 5 22 7 113 150 217 323 31 33 122 186 161 173 108 25 81 223 72 29 84 76 358 6 7 5 357
346 336 292 323 346 59 74 226 243 267 318 33 82 65 11 330 54 58 23 7 341 18 255 357 70 3 311 337 32 100 150 89 17 170 227 276 227 164 15 351 352 5 2 351 351
27 15 274 335 64 47 138 232 289 297 247 30 162 20 110 4 330 67 173 358 4 333 28 61 25 289 317 31 349 352 359 41 109 127 181 192 247 177 167 228 339 343 335 335 341
3 354 315 345 47 63 14 318 302 304 358 61 93 104 74 8 9 63 91 7 329 333 98 175 153 301 257 291 274 109 121 96 126 233 333 145 257 136 168 194 349 334 312 319 320
4 275 316 41 69 345 320 305 289 340 337 89 147 144 60 61 91 106 129 336 8 45 134 192 54 39 336 357 30 87 24 93 99 77 213 157 258 192 209 76 313 325 327 329 334
20 345 329 35 49 75 3 306 328 329 331 16 97 348 107 146 21 140 128 113 344 75 53 76 129 169 195 216 175 223 186 184 138 133 213 226 266 255 285 339 343 340 334 330 323
23 344 172 320 348 358 280 321 329 328 352 21 24 109 143 192 147 160 168 324 345 341 41 88 241 206 263 269 292 268 267 224 193 199 191 220 239 245 254 273 305 325 335 328 321
41 13 351 282 307 319 5 68 5 329 347 326 91 310 75 190 215 210 176 200 222 148 124 9 249 174 287 273 258 263 266 254 234 231 249 256 277 179 68 35 329 310 301 290 293
331 341 100 296 333 340 284 334 317 2 288 57 337 7 280 258 238 223 198 206 221 178 187 165 143 120 260 350 349 291 237 230 207 197 184 204 231 130 198 291 253 273 273 282 288